Regional Weather Roundup
Issued by NWS

Home | Current Version | Previous Version | Graphics & Text | Print | Product List | Glossary On
Versions: 1 2 3 4 5 6 7 8 9 10 11 12 13 14 15 16 17 18 19 20 21 22 23 24 25 26 27 28 29 30 31 32 33 34 35 36 37 38 39 40 41 42 43 44 45 46 47 48 49 50
000
ASUS43 KOAX 260010
RWRNE

WEATHER ROUNDUP FOR NEBRASKA
NATIONAL WEATHER SERVICE OMAHA NE
700 PM CDT TUE APR 25 2017

NOTES: SATELLITE DATA IS BEING USED TO AUGMENT CLOUD COVER ABOVE
       12000 FEET.
       "FAIR" INDICATES FEW OR NO CLOUDS BELOW 12,000 FEET WITH NO
       SIGNIFICANT WEATHER AND/OR OBSTRUCTIONS TO VISIBILITY.

  * THESE STATIONS DO NOT REPORT WEATHER SUCH AS RAIN...SNOW OR FOG.

NEZ001>004-019>022-054>056-260100-
NEBRASKA PANHANDLE

CITY           SKY/WX    TMP DP  RH WIND       PRES   REMARKS
SCOTTSBLUFF    CLOUDY    39  30  70 NE18      29.74R WCI  30
6HR MIN TEMP:  39; 6HR MAX TEMP:  47; 6HR PCP: TRACE;

ALLIANCE       LGT SNOW  34  30  85 N17       29.73R FOG     WCI  23
6HR MIN TEMP:  34; 6HR MAX TEMP:  40; 6HR PCP: TRACE;

CHADRON        LGT SNOW  31  27  85 N15G23    29.82R FOG     WCI  20
6HR MIN TEMP:  31; 6HR MAX TEMP:  36; 6HR PCP: TRACE;

KIMBALL        CLOUDY    41  37  84 N13G22    29.70R
SIDNEY         CLOUDY    41  35  79 N21       29.69R
6HR MIN TEMP:  41; 6HR MAX TEMP:  60;

$$

NEZ057>060-069>072-079>082-260100-
SOUTHWEST NEBRASKA

CITY           SKY/WX    TMP DP  RH WIND       PRES   REMARKS
NORTH PLATTE   CLOUDY    42  35  76 N17G24    29.69R
6HR MIN TEMP:  42; 6HR MAX TEMP:  49;

IMPERIAL       CLOUDY    46  38  73 NE21      29.65R
6HR MIN TEMP:  46; 6HR MAX TEMP:  54;

LEXINGTON      CLOUDY    40  36  83 N18       29.66R WCI  31
MCCOOK         CLOUDY    48  40  73 NE20      29.63R
6HR MIN TEMP:  48; 6HR MAX TEMP:  53;

OGALLALA       CLOUDY    43  36  74 NE17      29.69R
$$

NEZ005>010-023>029-035>040-094-260100-
NORTH CENTRAL NEBRASKA

CITY           SKY/WX    TMP DP  RH WIND       PRES   REMARKS
VALENTINE      CLOUDY    35  27  72 N16G28    29.76R WCI  25
6HR MIN TEMP:  35; 6HR MAX TEMP:  38; 6HR PCP: TRACE;

AINSWORTH      CLOUDY    33  32  94 N16G26    29.74R WCI  23
BROKEN BOW     CLOUDY    37  34  89 N23G31    29.67R WCI  26
6HR MIN TEMP:  37; 6HR MAX TEMP:  43;

O`NEILL        CLOUDY    38  33  84 N20G25    29.71S WCI  27
ORD            CLOUDY    39  34  82 N18G28    29.66R WCI  30
6HR MIN TEMP:  38; 6HR MAX TEMP:  41; 6HR PCP: TRACE;

THEDFORD       CLOUDY    37  32  84 N18G25    29.73R WCI  26
$$

NEZ041-046>049-061>064-073>077-083>087-260100-
SOUTH CENTRAL NEBRASKA

CITY           SKY/WX    TMP DP  RH WIND       PRES   REMARKS
GRAND ISLAND   CLOUDY    39  38  96 N17       29.64R WCI  30
6HR MIN TEMP:  39; 6HR MAX TEMP:  42;

AURORA         CLOUDY    40  38  90 N20G26    29.62R WCI  31
HASTINGS       CLOUDY    41  36  82 N21G31    29.63R
6HR MIN TEMP:  40; 6HR MAX TEMP:  45;

HEBRON         CLOUDY    44  37  78 N17G25    29.60R
HOLDREGE       CLOUDY    40  37  87 N20G25    29.64R WCI  31
KEARNEY *      CLOUDY    39  34  81 N20G25    29.65R WCI  30
YORK           CLOUDY    41  39  93 N15G26    29.62R
$$

NEZ011>018-030>034-042>045-260100-
NORTHEAST NEBRASKA

CITY           SKY/WX    TMP DP  RH WIND       PRES   REMARKS
NORFOLK        CLOUDY    38  36  92 NW23G29   29.62R WCI  27
6HR MIN TEMP:  38; 6HR MAX TEMP:  41; 6HR PCP: TRACE;

ALBION         CLOUDY    40  36  87 N15G23    29.64S WCI  31
BLAIR          RAIN      44  42  93 N17G23    29.55R
FREMONT        CLOUDY    43  43  98 NW10G20   29.59R FOG
TEKAMAH        LGT RAIN  44  41  89 N16       29.57R
6HR MIN TEMP:  44; 6HR MAX TEMP:  49; 6HR PCP: TRACE;

WAYNE          CLOUDY    40  40  99 NW16G26   29.63R WCI  32
$$

NEZ050>053-065>068-078-088>093-260100-
SOUTHEAST NEBRASKA

CITY           SKY/WX    TMP DP  RH WIND       PRES   REMARKS
LINCOLN        CLOUDY    45  41  86 N18       29.58R
6HR MIN TEMP:  45; 6HR MAX TEMP:  52;

OMAHA EPPLEY   LGT RAIN  45  41  86 N16       29.54R FOG
6HR MIN TEMP:  45; 6HR MAX TEMP:  53; 6HR PCP: TRACE;

BEATRICE       DRIZZLE   45  43  94 N20       29.57R
FALLS CITY     CLOUDY    54  45  71 NW14G21   29.48R
6HR MIN TEMP:  54; 6HR MAX TEMP:  67;

NEBRASKA CITY  CLOUDY    48  41  75 N20       29.51S
PLATTSMOUTH    LGT RAIN  46  41  82 NW15G21   29.52S
$$

NEZ044-045-051>053-067-260100-
OMAHA AREA

CITY           SKY/WX    TMP DP  RH WIND       PRES   REMARKS
OMAHA EPPLEY   LGT RAIN  45  41  86 N16       29.54R FOG
6HR MIN TEMP:  45; 6HR MAX TEMP:  53; 6HR PCP: TRACE;

BLAIR          RAIN      44  42  93 N17G23    29.55R
FREMONT        CLOUDY    43  43  98 NW10G20   29.59R FOG
MILLARD        DRIZZLE   47  45  91 NW10      29.55R
OFFUTT AFB     CLOUDY    46  43  89 NW10      29.53R
PLATTSMOUTH    LGT RAIN  46  41  82 NW15G21   29.52S
WAHOO          DRIZZLE   44  41  91 N18G26    29.57S
$$



USA.gov is the U.S. government's official web portal to all federal, state and local government web resources and services.